EROS B

Last updated on Sat Nov 01 2025 00:02:29 GMT+0000 (Coordinated Universal Time)

1 29079U 06014A 25304.64627946 .00105344 00000+0 14999-2 0 9996 2 29079 97.3504 59.6412 0006073 262.5676 97.4889 15.55961391 84231
UTC large
Height (km)
Speed (km/s)
/
Latitude / Longitude
Inclination (degrees)
Orbital Period (minutes)
Azimuth
Elevation
Range (km)
Doppler Factor

Next 0 passes for location: London (51.5072 / 0.1276)

Sorry there are no passes over London.